This is the latest recevied weather packets stored in our database for station/object VK3PBR-10. If no packets are shown the sender has not sent any weather packets the latest 10 day(s).
| Time | Temp. | Humidity | Pressure | Rain* | Wind** | Luminosity | Snow |
|---|---|---|---|---|---|---|---|
| 1787825784 | 12.22° C | 54% | 1030.1 hPa | - | - | - | - |
| 1787824884 | 13.33° C | 52% | 1029.9 hPa | - | - | - | - |
| 1787823984 | 13.33° C | 52% | 1029.9 hPa | - | - | - | - |
| 1787823083 | 13.89° C | 49% | 1029.8 hPa | - | - | - | - |
| 1787822183 | 14.44° C | 48% | 1029.8 hPa | - | - | - | - |
| 1787821281 | 15° C | 47% | 1029.6 hPa | - | - | - | - |
| 1787820381 | 15° C | 47% | 1029.6 hPa | - | - | - | - |
| 1787819481 | 14.44° C | 48% | 1029.4 hPa | - | - | - | - |
| 1787818581 | 14.44° C | 48% | 1029.2 hPa | - | - | - | - |
| 1787817680 | 15° C | 45% | 1029.2 hPa | - | - | - | - |
| 1787816780 | 15.56° C | 44% | 1029.1 hPa | - | - | - | - |
| 1787815879 | 16.67° C | 42% | 1028.9 hPa | - | - | - | - |
| 1787814979 | 18.89° C | 39% | 1028.8 hPa | - | - | - | - |
| 1787814079 | 20° C | 37% | 1029 hPa | - | - | - | - |
| 1787813179 | 20.56° C | 37% | 1028.8 hPa | - | - | - | - |
| 1787812279 | 21.11° C | 35% | 1028.8 hPa | - | - | - | - |
| 1787811379 | 22.22° C | 33% | 1028.9 hPa | - | - | - | - |
| 1787810478 | 22.78° C | 32% | 1029.1 hPa | - | - | - | - |
| 1787809578 | 23.89° C | 30% | 1029.1 hPa | - | - | - | - |
| 1787808678 | 23.89° C | 30% | 1029.1 hPa | - | - | - | - |
| 1787807778 | 25° C | 29% | 1029.2 hPa | - | - | - | - |
| 1787806878 | 26.11° C | 30% | 1029.3 hPa | - | - | - | - |
| 1787805978 | 26.67° C | 30% | 1029.2 hPa | - | - | - | - |
| 1787805077 | 28.33° C | 30% | 1029.4 hPa | - | - | - | - |
| 1787804177 | 27.78° C | 28% | 1029.5 hPa | - | - | - | - |
* Rain since midnight (hover to see other rain measurements)
** Current wind speed in m/s (hover to see current wind gust speed)